Sarasota, FL

5:56 PM EDT on April 27, 2017 (GMT -0400)
Sarasota-bradenton

Weather History for KSRQ - September, 2012

Change the Weather History Date:

Sunday, September 2, 2012

  Actual Average Record
Temperature  
Mean Temperature 83 °F 82 °F  
Max Temperature 92 °F 90 °F 95 °F (1962)
Min Temperature 74 °F 75 °F 63 °F (1960)
Degree Days  
Heating Degree Days 0 0  
Month to date heating degree days 0 0  
Since 1 July heating degree days 0 0  
Cooling Degree Days 18 17  
Month to date cooling degree days 38 34  
Year to date cooling degree days 2792 2331  
Growing Degree Days 32 (Base 50)    
Moisture  
Dew Point 70 °F    
Average Humidity 68    
Maximum Humidity 93    
Minimum Humidity 41    
Precipitation  
Precipitation 0.00 in 0.34 in 3.24 in (1963)
Month to date precipitation 0.00 0.68  
Year to date precipitation 38.43 39.01  
Sea Level Pressure  
Sea Level Pressure 30.03 in    
Wind  
Wind Speed 6 mph (NE)    
Max Wind Speed 15 mph    
Max Gust Speed 22 mph    
Visibility 10 miles    
Events      
T = Trace of Precipitation, MM = Missing Value Source: NWS Daily Summary

Daily Weather History Graph

Daily Weather History Graph

Search for Another Location

Airport or City:

Trip Planner

Search our weather history database for the weather conditions in past years. The results will help you decide how hot, cold, wet, or windy it might be!

Date:

Astronomy

Sep. 02, 2012 Rise Set
Actual Time 7:09 AM EDT 7:49 PM EDT
Civil Twilight 6:46 AM EDT 8:12 PM EDT
Nautical Twilight 6:18 AM EDT 8:40 PM EDT
Astronomical Twilight 5:50 AM EDT 9:08 PM EDT
Moon 8:55 PM EDT (9/2) 8:59 AM EDT (9/2)
Length of Visible Light 13h 26m
Length of Day
12h 39m
Waning Gibbous, 95% of the Moon is Illuminated
Sep 2
Waning Gibbous
Sep 8
Last Quarter
Sep 15
New
Sep 22
First Quarter
Sep 29
Full

Hourly Weather History & Observations

Time (EDT) Temp. Heat Index Dew Point Humidity Pressure Visibility Wind Dir Wind Speed Gust Speed Precip Events Conditions
12:53 AM 79.0 °F - 72.0 °F 79% 30.08 in 10.0 mi East 8.1 mph - N/A   Clear
1:53 AM 78.1 °F - 72.0 °F 81% 30.06 in 10.0 mi East 6.9 mph - N/A   Clear
2:53 AM 77.0 °F - 73.0 °F 88% 30.05 in 10.0 mi East 8.1 mph - N/A   Clear
3:53 AM 75.9 °F - 72.0 °F 87% 30.04 in 10.0 mi ENE 4.6 mph - N/A   Clear
4:53 AM 75.0 °F - 72.0 °F 90% 30.04 in 10.0 mi Calm Calm - N/A   Clear
5:53 AM 75.0 °F - 72.0 °F 90% 30.04 in 10.0 mi Calm Calm - N/A   Scattered Clouds
6:53 AM 73.9 °F - 71.1 °F 91% 30.05 in 10.0 mi Calm Calm - N/A   Clear
7:53 AM 75.0 °F - 72.0 °F 90% 30.06 in 10.0 mi NNE 3.5 mph - N/A   Clear
8:53 AM 79.0 °F - 71.1 °F 77% 30.07 in 10.0 mi ENE 4.6 mph - N/A   Clear
9:53 AM 82.0 °F 85.9 °F 70.0 °F 67% 30.08 in 10.0 mi ESE 8.1 mph - N/A   Clear
10:53 AM 84.9 °F 87.6 °F 66.9 °F 55% 30.08 in 10.0 mi ENE 6.9 mph - N/A   Clear
11:53 AM 87.1 °F 89.2 °F 66.0 °F 49% 30.07 in 10.0 mi NE 5.8 mph - N/A   Clear
12:53 PM 88.0 °F 90.7 °F 66.9 °F 49% 30.06 in 10.0 mi East 6.9 mph - N/A   Clear
1:53 PM 90.0 °F 91.7 °F 64.9 °F 43% 30.05 in 10.0 mi ENE 10.4 mph - N/A   Clear
2:53 PM 91.0 °F 93.0 °F 64.9 °F 42% 30.02 in 10.0 mi NE 8.1 mph - N/A   Clear
3:53 PM 89.1 °F 91.0 °F 64.9 °F 45% 30.00 in 10.0 mi ENE 12.7 mph - N/A   Scattered Clouds
4:53 PM 90.0 °F 91.7 °F 64.9 °F 43% 29.98 in 10.0 mi NE 9.2 mph - N/A   Partly Cloudy
5:53 PM 90.0 °F 91.3 °F 64.0 °F 42% 29.97 in 10.0 mi NE 10.4 mph - N/A   Partly Cloudy
6:53 PM 87.1 °F 92.0 °F 70.0 °F 57% 29.97 in 10.0 mi North 8.1 mph - N/A   Clear
7:53 PM 82.0 °F 86.3 °F 71.1 °F 69% 29.98 in 10.0 mi NNW 8.1 mph - N/A   Clear
8:53 PM 82.0 °F 86.7 °F 72.0 °F 71% 30.00 in 10.0 mi North 3.5 mph - N/A   Clear
9:53 PM 81.0 °F 85.2 °F 72.0 °F 74% 30.01 in 10.0 mi North 3.5 mph - N/A   Clear
10:53 PM 80.1 °F 84.2 °F 73.0 °F 79% 30.03 in 10.0 mi North 3.5 mph - N/A   Partly Cloudy
11:53 PM 80.1 °F 84.5 °F 73.9 °F 81% 30.03 in 10.0 mi NNE 3.5 mph - N/A   Clear